Time,TemperatureF,DewpointF,PressureIn,WindDirection,WindDirectionDegrees,WindSpeedMPH,WindSpeedGustMPH,Humidity,HourlyPrecipIn,Conditions,Clouds,dailyrainin,SoftwareType,DateUTC
2013-03-24 00:02:00,67.0,66.0,29.68,ENE,59,0.0,0.0,96,0.00,,,0.00,,2013-03-24 05:02:00,
2013-03-24 00:12:00,67.0,66.0,29.68,ENE,59,0.0,0.0,96,0.00,,,0.00,,2013-03-24 05:12:00,
2013-03-24 00:22:00,67.0,66.0,29.68,ENE,59,0.0,0.0,96,0.00,,,0.00,,2013-03-24 05:22:00,
2013-03-24 00:32:00,67.0,66.0,29.67,ENE,59,0.0,0.0,96,0.00,,,0.00,,2013-03-24 05:32:00,
2013-03-24 00:42:00,67.0,66.0,29.67,ENE,59,0.0,0.0,96,0.00,,,0.00,,2013-03-24 05:42:00,
2013-03-24 00:52:00,68.0,67.0,29.67,ENE,59,0.0,0.0,96,0.00,,,0.00,,2013-03-24 05:52:00,
2013-03-24 01:02:00,67.0,66.0,29.67,ENE,59,0.0,0.0,96,0.00,,,0.00,,2013-03-24 06:02:00,
2013-03-24 01:12:00,67.0,66.0,29.67,ENE,59,0.0,0.0,96,0.00,,,0.00,,2013-03-24 06:12:00,
2013-03-24 01:22:00,68.0,67.0,29.67,ENE,59,0.0,0.0,97,0.00,,,0.00,,2013-03-24 06:22:00,
2013-03-24 01:32:00,67.0,66.0,29.67,ENE,59,0.0,0.0,97,0.00,,,0.00,,2013-03-24 06:32:00,
2013-03-24 01:42:00,67.0,66.0,29.67,ENE,59,0.0,0.0,97,0.00,,,0.00,,2013-03-24 06:42:00,
2013-03-24 01:52:00,67.0,66.0,29.67,ENE,59,0.0,0.0,96,0.00,,,0.00,,2013-03-24 06:52:00,
2013-03-24 02:02:00,66.0,65.0,29.67,ENE,59,0.0,1.0,95,0.00,,,0.00,,2013-03-24 07:02:00,
2013-03-24 02:12:00,66.0,65.0,29.67,ENE,59,0.0,1.0,95,0.00,,,0.00,,2013-03-24 07:12:00,
2013-03-24 02:22:00,66.0,64.0,29.67,NE,37,0.0,1.0,93,0.00,,,0.00,,2013-03-24 07:22:00,
2013-03-24 02:32:00,66.0,64.0,29.67,NE,37,0.0,1.0,93,0.00,,,0.00,,2013-03-24 07:32:00,
2013-03-24 02:42:00,66.0,64.0,29.67,NE,37,0.0,1.0,93,0.00,,,0.00,,2013-03-24 07:42:00,
2013-03-24 02:52:00,66.0,64.0,29.67,NE,56,0.0,0.0,93,0.00,,,0.00,,2013-03-24 07:52:00,
2013-03-24 03:03:00,65.0,63.0,29.67,NE,56,0.0,0.0,92,0.00,,,0.00,,2013-03-24 08:03:00,
2013-03-24 03:12:00,65.0,63.0,29.67,NE,56,0.0,0.0,92,0.00,,,0.00,,2013-03-24 08:12:00,
2013-03-24 03:22:00,65.0,62.0,29.67,NE,56,0.0,0.0,91,0.00,,,0.00,,2013-03-24 08:22:00,
2013-03-24 03:32:00,65.0,62.0,29.66,NE,56,0.0,0.0,91,0.00,,,0.00,,2013-03-24 08:32:00,
2013-03-24 03:42:00,65.0,62.0,29.66,NE,56,0.0,0.0,91,0.00,,,0.00,,2013-03-24 08:42:00,
2013-03-24 03:52:00,65.0,62.0,29.66,NE,56,0.0,0.0,91,0.00,,,0.00,,2013-03-24 08:52:00,
2013-03-24 04:02:00,65.0,62.0,29.67,NE,56,0.0,0.0,91,0.00,,,0.00,,2013-03-24 09:02:00,
2013-03-24 04:12:00,65.0,62.0,29.67,NE,56,0.0,0.0,91,0.00,,,0.00,,2013-03-24 09:12:00,
2013-03-24 04:22:00,64.0,61.0,29.71,NW,324,0.0,3.0,91,0.00,,,0.00,,2013-03-24 09:22:00,
2013-03-24 04:33:00,64.0,62.0,29.72,NNW,342,0.0,2.0,92,0.00,,,0.00,,2013-03-24 09:33:00,
2013-03-24 04:42:00,64.0,62.0,29.72,NNW,342,0.0,2.0,92,0.00,,,0.00,,2013-03-24 09:42:00,
2013-03-24 04:52:00,63.0,61.0,29.73,NW,314,0.0,3.0,94,0.00,,,0.00,,2013-03-24 09:52:00,
2013-03-24 05:03:00,63.0,61.0,29.74,NW,320,0.0,4.0,94,0.00,,,0.00,,2013-03-24 10:03:00,
2013-03-24 05:12:00,63.0,61.0,29.74,NW,320,0.0,4.0,94,0.00,,,0.00,,2013-03-24 10:12:00,
2013-03-24 05:22:00,62.0,61.0,29.75,NNE,17,0.0,6.0,95,0.00,,,0.00,,2013-03-24 10:22:00,
2013-03-24 05:32:00,62.0,61.0,29.77,North,5,2.0,10.0,95,0.00,,,0.00,,2013-03-24 10:32:00,
2013-03-24 05:42:00,62.0,61.0,29.77,North,5,2.0,10.0,95,0.00,,,0.00,,2013-03-24 10:42:00,
2013-03-24 05:52:00,61.0,59.0,29.80,NW,324,0.0,8.0,94,0.00,,,0.00,,2013-03-24 10:52:00,
2013-03-24 06:03:00,60.0,58.0,29.80,North,5,1.0,7.0,94,0.00,,,0.00,,2013-03-24 11:03:00,
2013-03-24 06:12:00,60.0,58.0,29.80,North,5,1.0,7.0,94,0.00,,,0.00,,2013-03-24 11:12:00,
2013-03-24 06:22:00,60.0,58.0,29.80,WNW,301,2.0,4.0,93,0.00,,,0.00,,2013-03-24 11:22:00,
2013-03-24 06:32:00,60.0,58.0,29.81,North,5,1.0,4.0,93,0.00,,,0.00,,2013-03-24 11:32:00,
2013-03-24 06:42:00,60.0,58.0,29.81,North,5,1.0,4.0,93,0.00,,,0.00,,2013-03-24 11:42:00,
2013-03-24 06:52:00,59.0,57.0,29.81,North,351,0.0,5.0,93,0.00,,,0.00,,2013-03-24 11:52:00,
2013-03-24 07:02:00,59.0,56.0,29.82,NNE,12,2.0,11.0,91,0.00,,,0.00,,2013-03-24 12:02:00,
2013-03-24 07:12:00,59.0,56.0,29.82,NNE,12,2.0,11.0,91,0.00,,,0.00,,2013-03-24 12:12:00,
2013-03-24 07:22:00,58.0,55.0,29.84,NNW,327,1.0,3.0,89,0.00,,,0.00,,2013-03-24 12:22:00,
2013-03-24 07:32:00,58.0,55.0,29.85,NNW,329,0.0,2.0,89,0.00,,,0.00,,2013-03-24 12:32:00,
2013-03-24 07:42:00,58.0,55.0,29.85,NNW,329,0.0,2.0,89,0.00,,,0.00,,2013-03-24 12:42:00,
2013-03-24 07:52:00,57.0,53.0,29.86,North,350,0.0,4.0,87,0.00,,,0.00,,2013-03-24 12:52:00,
2013-03-24 08:02:00,57.0,53.0,29.88,NNW,333,0.0,4.0,87,0.00,,,0.00,,2013-03-24 13:02:00,
2013-03-24 08:12:00,57.0,53.0,29.88,NNW,333,0.0,4.0,87,0.00,,,0.00,,2013-03-24 13:12:00,
2013-03-24 08:22:00,57.0,53.0,29.90,NNW,329,0.0,5.0,86,0.00,,,0.00,,2013-03-24 13:22:00,
2013-03-24 08:32:00,56.0,51.0,29.90,NW,317,2.0,5.0,83,0.00,,,0.00,,2013-03-24 13:32:00,
2013-03-24 08:42:00,56.0,51.0,29.90,NW,317,2.0,5.0,83,0.00,,,0.00,,2013-03-24 13:42:00,
2013-03-24 08:52:00,56.0,50.0,29.92,NNW,335,2.0,10.0,80,0.00,,,0.00,,2013-03-24 13:52:00,
2013-03-24 09:02:00,56.0,50.0,29.93,NE,38,0.0,6.0,80,0.00,,,0.00,,2013-03-24 14:02:00,
2013-03-24 09:12:00,56.0,50.0,29.93,NE,38,0.0,6.0,80,0.00,,,0.00,,2013-03-24 14:12:00,
2013-03-24 09:22:00,56.0,49.0,29.93,NNW,345,1.0,6.0,78,0.00,,,0.00,,2013-03-24 14:22:00,
2013-03-24 09:32:00,56.0,49.0,29.94,NW,323,2.0,7.0,76,0.00,,,0.00,,2013-03-24 14:32:00,
2013-03-24 09:42:00,56.0,49.0,29.94,NW,323,2.0,7.0,76,0.00,,,0.00,,2013-03-24 14:42:00,
2013-03-24 09:52:00,56.0,48.0,29.95,NNE,15,2.0,6.0,74,0.00,,,0.00,,2013-03-24 14:52:00,
2013-03-24 10:02:00,57.0,48.0,29.96,North,11,0.0,6.0,71,0.00,,,0.00,,2013-03-24 15:02:00,
2013-03-24 10:12:00,57.0,48.0,29.96,North,11,0.0,6.0,71,0.00,,,0.00,,2013-03-24 15:12:00,
2013-03-24 10:22:00,57.0,46.0,29.96,West,274,1.0,7.0,66,0.00,,,0.00,,2013-03-24 15:22:00,
2013-03-24 10:33:00,57.0,43.0,29.97,North,355,1.0,8.0,60,0.00,,,0.00,,2013-03-24 15:33:00,
2013-03-24 10:43:00,57.0,43.0,29.97,North,355,1.0,8.0,60,0.00,,,0.00,,2013-03-24 15:43:00,
2013-03-24 10:53:00,58.0,43.0,29.98,NNW,343,0.0,9.0,58,0.00,,,0.00,,2013-03-24 15:53:00,
2013-03-24 11:03:00,59.0,41.0,29.98,NNE,15,4.0,9.0,52,0.00,,,0.00,,2013-03-24 16:03:00,
2013-03-24 11:12:00,59.0,41.0,29.98,NNE,15,4.0,9.0,52,0.00,,,0.00,,2013-03-24 16:12:00,
2013-03-24 11:22:00,59.0,40.0,29.99,NE,44,3.0,11.0,49,0.00,,,0.00,,2013-03-24 16:22:00,
2013-03-24 11:33:00,60.0,41.0,29.99,NNE,17,3.0,8.0,50,0.00,,,0.00,,2013-03-24 16:33:00,
2013-03-24 11:42:00,60.0,41.0,29.99,NNE,17,3.0,8.0,50,0.00,,,0.00,,2013-03-24 16:42:00,
2013-03-24 11:52:00,61.0,42.0,29.99,NNE,17,2.0,6.0,50,0.00,,,0.00,,2013-03-24 16:52:00,
2013-03-24 12:02:00,60.0,40.0,29.99,North,355,0.0,8.0,47,0.00,,,0.00,,2013-03-24 17:02:00,
2013-03-24 12:12:00,60.0,40.0,29.99,North,355,0.0,8.0,47,0.00,,,0.00,,2013-03-24 17:12:00,
2013-03-24 12:23:00,61.0,38.0,30.00,NNE,32,2.0,9.0,43,0.00,,,0.00,,2013-03-24 17:23:00,
2013-03-24 12:32:00,61.0,38.0,30.00,NW,325,4.0,9.0,43,0.00,,,0.00,,2013-03-24 17:32:00,
2013-03-24 12:42:00,61.0,38.0,30.00,NW,325,4.0,9.0,43,0.00,,,0.00,,2013-03-24 17:42:00,
2013-03-24 12:53:00,62.0,40.0,29.99,WSW,251,2.0,10.0,44,0.00,,,0.00,,2013-03-24 17:53:00,
2013-03-24 13:02:00,62.0,36.0,29.99,NNW,333,1.0,8.0,38,0.00,,,0.00,,2013-03-24 18:02:00,
2013-03-24 13:12:00,62.0,36.0,29.99,NNW,333,1.0,8.0,38,0.00,,,0.00,,2013-03-24 18:12:00,
2013-03-24 13:22:00,61.0,35.0,30.00,North,355,1.0,10.0,38,0.00,,,0.00,,2013-03-24 18:22:00,
2013-03-24 13:32:00,62.0,35.0,29.99,NNW,327,4.0,12.0,36,0.00,,,0.00,,2013-03-24 18:32:00,
2013-03-24 13:43:00,62.0,35.0,29.99,NNW,327,4.0,12.0,36,0.00,,,0.00,,2013-03-24 18:43:00,
2013-03-24 13:52:00,62.0,35.0,29.99,NNW,348,4.0,9.0,36,0.00,,,0.00,,2013-03-24 18:52:00,
2013-03-24 14:02:00,63.0,37.0,29.99,West,279,1.0,7.0,38,0.00,,,0.00,,2013-03-24 19:02:00,
2013-03-24 14:12:00,63.0,37.0,29.99,West,279,1.0,7.0,38,0.00,,,0.00,,2013-03-24 19:12:00,
2013-03-24 14:22:00,63.0,35.0,29.98,NW,325,1.0,11.0,35,0.00,,,0.00,,2013-03-24 19:22:00,
2013-03-24 14:32:00,63.0,33.0,29.98,North,355,3.0,10.0,33,0.00,,,0.00,,2013-03-24 19:32:00,
2013-03-24 14:42:00,63.0,33.0,29.98,North,355,3.0,10.0,33,0.00,,,0.00,,2013-03-24 19:42:00,
2013-03-24 14:53:00,63.0,36.0,29.98,NNE,26,0.0,6.0,36,0.00,,,0.00,,2013-03-24 19:53:00,
2013-03-24 15:02:00,63.0,36.0,29.98,NNE,17,2.0,12.0,36,0.00,,,0.00,,2013-03-24 20:02:00,
2013-03-24 15:12:00,63.0,36.0,29.98,NNE,17,2.0,12.0,36,0.00,,,0.00,,2013-03-24 20:12:00,
2013-03-24 15:22:00,64.0,34.0,29.96,NNW,338,2.0,6.0,33,0.00,,,0.00,,2013-03-24 20:22:00,
2013-03-24 15:32:00,64.0,34.0,29.96,NNW,334,3.0,10.0,33,0.00,,,0.00,,2013-03-24 20:32:00,
2013-03-24 15:42:00,64.0,34.0,29.96,NNW,334,3.0,10.0,33,0.00,,,0.00,,2013-03-24 20:42:00,
2013-03-24 15:53:00,64.0,35.0,29.96,NNW,335,1.0,6.0,34,0.00,,,0.00,,2013-03-24 20:53:00,
2013-03-24 16:02:00,64.0,34.0,29.96,NE,55,3.0,9.0,33,0.00,,,0.00,,2013-03-24 21:02:00,
2013-03-24 16:12:00,64.0,34.0,29.96,NE,55,3.0,9.0,33,0.00,,,0.00,,2013-03-24 21:12:00,
2013-03-24 16:22:00,63.0,34.0,29.96,NE,50,1.0,5.0,34,0.00,,,0.00,,2013-03-24 21:22:00,
2013-03-24 16:33:00,62.0,35.0,29.96,NW,322,2.0,7.0,36,0.00,,,0.00,,2013-03-24 21:33:00,
2013-03-24 16:43:00,62.0,35.0,29.96,NW,322,2.0,7.0,36,0.00,,,0.00,,2013-03-24 21:43:00,
2013-03-24 16:53:00,62.0,31.0,29.95,NW,325,2.0,14.0,31,0.00,,,0.00,,2013-03-24 21:53:00,
2013-03-24 17:02:00,62.0,31.0,29.95,NNW,340,3.0,7.0,31,0.00,,,0.00,,2013-03-24 22:02:00,
2013-03-24 17:13:00,62.0,31.0,29.95,NNW,340,3.0,7.0,31,0.00,,,0.00,,2013-03-24 22:13:00,
2013-03-24 17:23:00,61.0,31.0,29.96,NNE,27,1.0,5.0,32,0.00,,,0.00,,2013-03-24 22:23:00,
2013-03-24 17:33:00,61.0,32.0,29.96,North,351,3.0,9.0,33,0.00,,,0.00,,2013-03-24 22:33:00,
2013-03-24 17:42:00,61.0,32.0,29.96,North,351,3.0,9.0,33,0.00,,,0.00,,2013-03-24 22:42:00,
2013-03-24 17:52:00,61.0,32.0,29.96,NW,326,3.0,8.0,34,0.00,,,0.00,,2013-03-24 22:52:00,
2013-03-24 18:02:00,61.0,32.0,29.96,NNW,344,1.0,6.0,33,0.00,,,0.00,,2013-03-24 23:02:00,
2013-03-24 18:12:00,61.0,32.0,29.96,NNW,344,1.0,6.0,33,0.00,,,0.00,,2013-03-24 23:12:00,
2013-03-24 18:22:00,59.0,31.0,29.96,NNW,338,2.0,8.0,35,0.00,,,0.00,,2013-03-24 23:22:00,
2013-03-24 18:32:00,59.0,32.0,29.97,NE,51,1.0,4.0,36,0.00,,,0.00,,2013-03-24 23:32:00,
2013-03-24 18:42:00,59.0,32.0,29.97,NE,51,1.0,4.0,36,0.00,,,0.00,,2013-03-24 23:42:00,
2013-03-24 18:53:00,58.0,33.0,29.98,North,9,1.0,4.0,38,0.00,,,0.00,,2013-03-24 23:53:00,
2013-03-24 19:02:00,57.0,31.0,29.98,NW,310,1.0,7.0,37,0.00,,,0.00,,2013-03-25 00:02:00,
2013-03-24 19:12:00,57.0,31.0,29.98,NW,310,1.0,7.0,37,0.00,,,0.00,,2013-03-25 00:12:00,
2013-03-24 19:22:00,57.0,32.0,30.00,NNW,342,1.0,4.0,39,0.00,,,0.00,,2013-03-25 00:22:00,
2013-03-24 19:32:00,56.0,32.0,30.00,NNE,22,0.0,3.0,40,0.00,,,0.00,,2013-03-25 00:32:00,
2013-03-24 19:42:00,56.0,32.0,30.00,NNE,22,0.0,3.0,40,0.00,,,0.00,,2013-03-25 00:42:00,
2013-03-24 19:53:00,55.0,32.0,30.01,NNE,29,0.0,1.0,41,0.00,,,0.00,,2013-03-25 00:53:00,
2013-03-24 20:02:00,55.0,32.0,30.02,NNW,345,0.0,3.0,42,0.00,,,0.00,,2013-03-25 01:02:00,
2013-03-24 20:12:00,55.0,32.0,30.02,NNW,345,0.0,3.0,42,0.00,,,0.00,,2013-03-25 01:12:00,
2013-03-24 20:22:00,54.0,32.0,30.03,NNW,345,1.0,4.0,43,0.00,,,0.00,,2013-03-25 01:22:00,
2013-03-24 20:32:00,54.0,33.0,30.03,NNW,344,0.0,1.0,44,0.00,,,0.00,,2013-03-25 01:32:00,
2013-03-24 20:42:00,54.0,33.0,30.03,NNW,344,0.0,1.0,44,0.00,,,0.00,,2013-03-25 01:42:00,
2013-03-24 20:52:00,53.0,33.0,30.05,NNW,344,0.0,0.0,46,0.00,,,0.00,,2013-03-25 01:52:00,
2013-03-24 21:02:00,52.0,32.0,30.05,NNW,344,0.0,1.0,47,0.00,,,0.00,,2013-03-25 02:02:00,
2013-03-24 21:12:00,52.0,32.0,30.05,NNW,344,0.0,1.0,47,0.00,,,0.00,,2013-03-25 02:12:00,
2013-03-24 21:22:00,52.0,34.0,30.06,NNW,344,0.0,0.0,50,0.00,,,0.00,,2013-03-25 02:22:00,
2013-03-24 21:32:00,51.0,33.0,30.07,NNW,344,0.0,0.0,50,0.00,,,0.00,,2013-03-25 02:32:00,
2013-03-24 21:42:00,51.0,33.0,30.07,NNW,344,0.0,0.0,50,0.00,,,0.00,,2013-03-25 02:42:00,
2013-03-24 21:52:00,50.0,33.0,30.08,NNW,344,0.0,0.0,52,0.00,,,0.00,,2013-03-25 02:52:00,
2013-03-24 22:02:00,50.0,34.0,30.08,NNW,344,0.0,1.0,54,0.00,,,0.00,,2013-03-25 03:02:00,
2013-03-24 22:13:00,50.0,34.0,30.08,NNW,344,0.0,1.0,54,0.00,,,0.00,,2013-03-25 03:13:00,
2013-03-24 22:22:00,49.0,34.0,30.09,NW,321,0.0,1.0,55,0.00,,,0.00,,2013-03-25 03:22:00,
2013-03-24 22:33:00,49.0,34.0,30.10,NW,321,0.0,0.0,56,0.00,,,0.00,,2013-03-25 03:33:00,
2013-03-24 22:42:00,48.0,34.0,30.11,NW,321,0.0,0.0,59,0.00,,,0.00,,2013-03-25 03:42:00,
2013-03-24 22:53:00,48.0,34.0,30.11,NW,321,0.0,0.0,59,0.00,,,0.00,,2013-03-25 03:53:00,
2013-03-24 23:02:00,48.0,36.0,30.11,NW,321,0.0,0.0,64,0.00,,,0.00,,2013-03-25 04:02:00,
2013-03-24 23:12:00,48.0,36.0,30.11,NW,321,0.0,0.0,64,0.00,,,0.00,,2013-03-25 04:12:00,
2013-03-24 23:22:00,47.0,35.0,30.12,NW,321,0.0,0.0,64,0.00,,,0.00,,2013-03-25 04:22:00,
2013-03-24 23:33:00,46.0,35.0,30.13,NW,321,0.0,0.0,65,0.00,,,0.00,,2013-03-25 04:33:00,
2013-03-24 23:43:00,46.0,35.0,30.13,NW,321,0.0,0.0,65,0.00,,,0.00,,2013-03-25 04:43:00,
2013-03-24 23:52:00,46.0,35.0,30.14,NNW,342,0.0,0.0,66,0.00,,,0.00,,2013-03-25 04:52:00,